Weather in Sukhiye Ploty

Russia / Tula Oblast     53°27′02″N   38°08′52″E
temp.,
°C
wind,
m/s
gust,
m/s
humid.,
%
clouds,
%
prec.,
mm/h
press.,
hPa
HPBL,
m
7 may, fri
fri700:00+7w2589100 1.1 1010311
03:00+7ssw3591100 1.8 1011187
06:00+7w2690100 0.1 1012318
09:00+10w466246 0.1 1014929
12:00+12w56455 0.0 10151696
15:00+14wsw45376 0.0 10142054
18:00+13ssw3551100 0.0 1014472
21:00+10sse476294 0.0 1014137
8 may, sat
sat800:00+9sse61460100 0.0 1014360
03:00+8sse81767100 0.0 1012538
06:00+8sse81782100 0.6 1010747
09:00+8sse101986100 4.4 1007805
12:00+9s91794100 5.3 10051059
15:00+10ssw81595100 8.3 1004897
18:00+9sw61189100 0.2 1007668
21:00+8wsw71285100 0.2 1008654
9 may, sun
sun900:00+6wnw71190100 0.0 1010815
03:00+4w5985100 0.1 10141028
06:00+4w598783 0.0 1016526
09:00+7nw687299 0.0 1017979
12:00+10nw685598 0.1 10181921
15:00+9nnw895779 0.1 10211807
18:00+10nnw49595 0.0 10221767
21:00+5nnw36743 0.0 1025100
10 may, mon
mon1000:00+5nw35750 0.0 102677
03:00+4nnw36795 0.0 102889
06:00+4n37775 0.0 1030167
09:00+10nne465619 0.0 1031541
12:00+13nne454541 0.0 10311485
15:00+14nne45445 0.0 10301581
18:00+13ne35572 0.0 1030654
21:00+9ne34690 0.0 103145
11 may, tue
tue1100:00+7ene34720 0.0 103143
03:00+6ne357720 0.0 103264
06:00+7ene36785 0.0 1032136
09:00+12ene58604 0.0 1032635
12:00+15ene68500 0.0 10301037
15:00+17ene67470 0.0 10291089
18:00+16ene58600 0.0 1028676
21:00+11ene49800 0.0 1028163